Terug naar catalogus

FENGYUN 1C DEB

ActiefSSO
NORAD 29762·DEBRIS·🇨🇳 China

Gelanceerd May 10, 1999 vanaf Taiyuan Satellite Launch Center

Loading…

Volgende Passages (komende 24 uur)

TLE

VersSource: Space-Track

Epoch: Sep 14, 2026, 05:39 UTC

1 29762U 99025BC  26257.23584367  .00000279  00000-0  11806-3 0  9998
2 29762  98.6077 238.5732 0202196 254.6527 114.9702 14.22943430 18618

Volg FENGYUN 1C DEB in realtime met AllMySat

Download on the App Store